CHH7390 ZSHC-ZGSZ

Flight info

Callsign CHH7390
Flight time 1h 51m
Altitude 30100
Route UGAGO A470 BEBEM R200 GUBLO
Aircraft A333/H-SDE3GHIJ2J3J5M1RVWXY/LB2D1

Departure

Time 2026-04-14 11:08
Airport Hangzhou Xiaoshan International Airport (ZSHC)

Arrival

Time 2026-04-14 12:59
Airport Shenzhen Bao'an International Airport (ZGSZ)
Time Latitude Longitude Altitude Speed Heading
2026-04-14 11:08 30.23177 120.54178 3643 ft 266 kts 97°
2026-04-14 11:08 30.22734 120.56309 4338 ft 277 kts 114°
2026-04-14 11:08 30.21553 120.58075 5028 ft 283 kts 145°
2026-04-14 11:08 30.20457 120.58879 5561 ft 284 kts 154°
2026-04-14 11:09 30.18686 120.59906 6451 ft 285 kts 161°
2026-04-14 11:09 30.16793 120.60541 7292 ft 283 kts 175°
2026-04-14 11:09 30.14209 120.60518 8427 ft 276 kts 201°
2026-04-14 11:10 30.11621 120.58635 9945 ft 262 kts 231°
2026-04-14 11:10 30.10421 120.57024 10565 ft 271 kts 237°
2026-04-14 11:10 30.09302 120.55174 10888 ft 291 kts 240°
2026-04-14 11:10 30.08177 120.53135 11218 ft 310 kts 241°
2026-04-14 11:11 30.07008 120.50996 11774 ft 320 kts 240°
2026-04-14 11:11 30.05789 120.48823 12494 ft 325 kts 240°
2026-04-14 11:11 30.04529 120.46641 13217 ft 329 kts 239°
2026-04-14 11:11 30.03231 120.44441 13931 ft 333 kts 238°
2026-04-14 11:12 30.01906 120.42227 14623 ft 336 kts 238°
2026-04-14 11:12 30.00560 120.40005 15335 ft 340 kts 238°
2026-04-14 11:12 29.99203 120.37765 16077 ft 341 kts 238°
2026-04-14 11:12 29.97835 120.35497 16691 ft 345 kts 237°
2026-04-14 11:13 29.96475 120.33230 17480 ft 343 kts 238°
2026-04-14 11:13 29.95116 120.30947 18146 ft 347 kts 237°
2026-04-14 11:13 29.93733 120.28652 18706 ft 350 kts 237°
2026-04-14 11:13 29.92336 120.26349 19272 ft 352 kts 237°
2026-04-14 11:14 29.90928 120.24029 19907 ft 353 kts 237°
2026-04-14 11:14 29.89519 120.21704 20487 ft 356 kts 237°
2026-04-14 11:14 29.88097 120.19357 21059 ft 358 kts 238°
2026-04-14 11:14 29.86672 120.17003 21626 ft 359 kts 238°
2026-04-14 11:15 29.85259 120.14665 22153 ft 362 kts 238°
2026-04-14 11:15 29.83794 120.12244 22636 ft 365 kts 238°
2026-04-14 11:15 29.82334 120.09834 23089 ft 369 kts 238°
2026-04-14 11:15 29.80882 120.07428 23473 ft 373 kts 238°
2026-04-14 11:16 29.79387 120.04962 23915 ft 375 kts 238°
2026-04-14 11:16 29.77894 120.02502 24460 ft 374 kts 238°
2026-04-14 11:16 29.76401 120.00052 24961 ft 375 kts 238°
2026-04-14 11:16 29.74902 119.97588 25408 ft 376 kts 238°
2026-04-14 11:17 29.73404 119.95123 25889 ft 376 kts 238°
2026-04-14 11:17 29.71898 119.92650 26297 ft 378 kts 238°
2026-04-14 11:17 29.70384 119.90163 26655 ft 381 kts 238°
2026-04-14 11:17 29.68862 119.87663 27080 ft 382 kts 238°
2026-04-14 11:18 29.67332 119.85155 27538 ft 383 kts 238°
2026-04-14 11:18 29.65799 119.82646 27976 ft 385 kts 238°
2026-04-14 11:18 29.64264 119.80132 28461 ft 385 kts 238°
2026-04-14 11:18 29.62724 119.77612 28893 ft 386 kts 238°
2026-04-14 11:19 29.61181 119.75079 29323 ft 388 kts 238°
2026-04-14 11:19 29.59607 119.72551 29699 ft 391 kts 236°
2026-04-14 11:19 29.57805 119.70189 30034 ft 396 kts 230°
2026-04-14 11:19 29.55703 119.68122 30137 ft 398 kts 222°
2026-04-14 11:20 29.50786 119.65244 30162 ft 403 kts 206°
2026-04-14 11:20 29.48025 119.64506 30160 ft 414 kts 198°
2026-04-14 11:20 29.45143 119.64142 30165 ft 418 kts 195°
2026-04-14 11:21 29.39310 119.63757 30155 ft 421 kts 192°
2026-04-14 11:21 29.33453 119.63472 30131 ft 421 kts 193°
2026-04-14 11:22 29.27595 119.63153 30152 ft 422 kts 193°
2026-04-14 11:22 29.21731 119.62804 30153 ft 422 kts 193°
2026-04-14 11:23 29.15871 119.62446 30148 ft 422 kts 193°
2026-04-14 11:23 29.10007 119.62087 30150 ft 422 kts 193°
2026-04-14 11:24 29.04145 119.61723 30148 ft 422 kts 193°
2026-04-14 11:24 28.98287 119.61355 30152 ft 422 kts 193°
2026-04-14 11:25 28.92427 119.60991 30153 ft 422 kts 193°
2026-04-14 11:25 28.86563 119.60633 30151 ft 422 kts 193°
2026-04-14 11:26 28.80709 119.60264 30148 ft 422 kts 193°
2026-04-14 11:26 28.74838 119.59908 30145 ft 422 kts 193°
2026-04-14 11:27 28.68970 119.59545 30146 ft 422 kts 193°
2026-04-14 11:27 28.63099 119.59176 30141 ft 423 kts 193°
2026-04-14 11:28 28.57226 119.58812 30128 ft 422 kts 193°
2026-04-14 11:28 28.51366 119.58454 30144 ft 421 kts 193°
2026-04-14 11:29 28.45515 119.58094 30137 ft 421 kts 193°
2026-04-14 11:29 28.39652 119.57763 30134 ft 422 kts 193°
2026-04-14 11:30 28.33794 119.57443 30139 ft 422 kts 193°
2026-04-14 11:30 28.27927 119.57112 30133 ft 423 kts 193°
2026-04-14 11:31 28.22050 119.56776 30139 ft 424 kts 193°
2026-04-14 11:31 28.16158 119.56459 30136 ft 424 kts 193°
2026-04-14 11:32 28.10267 119.56143 30138 ft 424 kts 192°
2026-04-14 11:32 28.04337 119.55985 30138 ft 429 kts 191°
2026-04-14 11:33 27.98394 119.55914 30139 ft 431 kts 190°
2026-04-14 11:34 27.89403 119.55823 30142 ft 431 kts 190°
2026-04-14 11:34 27.83413 119.55796 30138 ft 430 kts 190°
2026-04-14 11:35 27.77418 119.55770 30139 ft 431 kts 190°
2026-04-14 11:35 27.71423 119.55742 30136 ft 431 kts 190°
2026-04-14 11:36 27.65436 119.55713 30140 ft 430 kts 190°
2026-04-14 11:36 27.59453 119.55675 30142 ft 430 kts 190°
2026-04-14 11:37 27.53461 119.55640 30134 ft 431 kts 189°
2026-04-14 11:37 27.47462 119.55596 30140 ft 431 kts 189°
2026-04-14 11:38 27.41452 119.55567 30126 ft 432 kts 189°
2026-04-14 11:38 27.35445 119.55557 30135 ft 432 kts 189°
2026-04-14 11:39 27.29435 119.55550 30113 ft 432 kts 188°
2026-04-14 11:39 27.23395 119.55537 30120 ft 435 kts 188°
2026-04-14 11:40 27.17330 119.55498 30123 ft 436 kts 188°
2026-04-14 11:40 27.11261 119.55457 30115 ft 436 kts 188°
2026-04-14 11:41 27.05195 119.55417 30107 ft 436 kts 188°
2026-04-14 11:41 26.99120 119.55377 30099 ft 437 kts 187°
2026-04-14 11:42 26.93037 119.55338 30103 ft 437 kts 187°
2026-04-14 11:42 26.86990 119.55301 30100 ft 437 kts 187°
2026-04-14 11:43 26.80904 119.55262 30090 ft 437 kts 187°
2026-04-14 11:43 26.74818 119.55222 30083 ft 438 kts 187°
2026-04-14 11:44 26.68714 119.55182 30088 ft 439 kts 187°
2026-04-14 11:44 26.62606 119.55144 30086 ft 439 kts 187°
2026-04-14 11:45 26.56491 119.55099 30086 ft 440 kts 187°
2026-04-14 11:45 26.50369 119.55062 30047 ft 439 kts 188°
2026-04-14 11:46 26.44255 119.55028 30068 ft 439 kts 188°
2026-04-14 11:46 26.38142 119.54986 30066 ft 439 kts 188°
2026-04-14 11:47 26.32037 119.54923 30066 ft 439 kts 188°
2026-04-14 11:47 26.25926 119.54848 30053 ft 439 kts 188°
2026-04-14 11:48 26.19973 119.54012 30052 ft 425 kts 201°
2026-04-14 11:48 26.14292 119.52244 30050 ft 424 kts 204°
2026-04-14 11:49 26.08669 119.50308 30042 ft 423 kts 204°
2026-04-14 11:49 26.03051 119.48354 30044 ft 423 kts 204°
2026-04-14 11:50 25.97460 119.46433 30050 ft 423 kts 204°
2026-04-14 11:50 25.91839 119.44516 30056 ft 422 kts 204°
2026-04-14 11:51 25.83410 119.41646 30058 ft 423 kts 204°
2026-04-14 11:51 25.77804 119.39698 30057 ft 420 kts 207°
2026-04-14 11:52 25.72781 119.36633 30044 ft 408 kts 223°
2026-04-14 11:52 25.68679 119.32332 30068 ft 406 kts 230°
2026-04-14 11:53 25.64815 119.27775 30067 ft 406 kts 231°
2026-04-14 11:53 25.60977 119.23185 30077 ft 407 kts 231°
2026-04-14 11:54 25.57109 119.18609 30074 ft 407 kts 231°
2026-04-14 11:54 25.53224 119.14050 30079 ft 407 kts 231°
2026-04-14 11:55 25.49329 119.09498 30086 ft 408 kts 230°
2026-04-14 11:55 25.45421 119.04930 30086 ft 409 kts 230°
2026-04-14 11:56 25.42173 119.01134 30095 ft 409 kts 230°
2026-04-14 11:56 25.37626 118.95825 30092 ft 409 kts 230°
2026-04-14 11:57 25.34349 118.92001 30101 ft 409 kts 231°
2026-04-14 11:57 25.29869 118.86627 30094 ft 409 kts 231°
2026-04-14 11:58 25.26047 118.81981 30099 ft 409 kts 231°
2026-04-14 11:58 25.22839 118.78088 30099 ft 409 kts 231°
2026-04-14 11:59 25.19009 118.73454 30092 ft 408 kts 231°
2026-04-14 11:59 25.15172 118.68824 30092 ft 409 kts 231°
2026-04-14 12:00 25.11323 118.64189 30096 ft 409 kts 231°
2026-04-14 12:00 25.07453 118.59602 30088 ft 409 kts 230°
2026-04-14 12:01 25.03551 118.55113 30088 ft 410 kts 230°
2026-04-14 12:01 24.99572 118.50569 30084 ft 410 kts 230°
2026-04-14 12:02 24.95608 118.46036 30083 ft 410 kts 230°
2026-04-14 12:02 24.91656 118.41514 30080 ft 410 kts 230°
2026-04-14 12:03 24.87698 118.36984 30077 ft 410 kts 230°
2026-04-14 12:03 24.83740 118.32455 30078 ft 411 kts 230°
2026-04-14 12:04 24.79771 118.27920 30079 ft 411 kts 230°
2026-04-14 12:04 24.75801 118.23394 30078 ft 411 kts 230°
2026-04-14 12:05 24.71833 118.18875 30075 ft 411 kts 230°
2026-04-14 12:05 24.67860 118.14355 30075 ft 411 kts 230°
2026-04-14 12:06 24.63890 118.09844 30047 ft 411 kts 230°
2026-04-14 12:06 24.59905 118.05317 30074 ft 413 kts 230°
2026-04-14 12:07 24.55920 118.00772 30073 ft 412 kts 231°
2026-04-14 12:07 24.52041 117.96132 30066 ft 412 kts 231°
2026-04-14 12:08 24.48202 117.91462 30067 ft 412 kts 232°
2026-04-14 12:08 24.44381 117.86824 30070 ft 412 kts 231°
2026-04-14 12:09 24.40527 117.82169 30061 ft 412 kts 231°
2026-04-14 12:09 24.36653 117.77501 30071 ft 414 kts 231°
2026-04-14 12:10 24.32772 117.72829 30078 ft 415 kts 231°
2026-04-14 12:10 24.28888 117.68160 30074 ft 415 kts 231°
2026-04-14 12:11 24.24999 117.63491 30081 ft 415 kts 231°
2026-04-14 12:11 24.21110 117.58826 30080 ft 414 kts 231°
2026-04-14 12:12 24.17216 117.54165 30090 ft 415 kts 231°
2026-04-14 12:12 24.13224 117.49583 30094 ft 418 kts 227°
2026-04-14 12:13 24.08946 117.45275 30102 ft 418 kts 226°
2026-04-14 12:13 24.04622 117.41036 30096 ft 418 kts 225°
2026-04-14 12:14 24.00284 117.36804 30098 ft 417 kts 225°
2026-04-14 12:14 23.95957 117.32577 30103 ft 417 kts 225°
2026-04-14 12:15 23.91629 117.28343 30104 ft 418 kts 226°
2026-04-14 12:15 23.87289 117.24101 30107 ft 419 kts 226°
2026-04-14 12:16 23.82942 117.19856 30103 ft 419 kts 225°
2026-04-14 12:16 23.78595 117.15617 30113 ft 419 kts 225°
2026-04-14 12:17 23.74363 117.11275 30113 ft 416 kts 229°
2026-04-14 12:17 23.70372 117.06718 29377 ft 416 kts 230°
2026-04-14 12:18 23.68381 117.04401 28476 ft 421 kts 230°
2026-04-14 12:18 23.66371 117.02069 27810 ft 421 kts 230°
2026-04-14 12:18 23.64365 116.99758 27227 ft 418 kts 230°
2026-04-14 12:18 23.62366 116.97470 26730 ft 415 kts 230°
2026-04-14 12:19 23.60379 116.95207 26529 ft 413 kts 230°
2026-04-14 12:19 23.58383 116.92938 26496 ft 414 kts 230°
2026-04-14 12:19 23.56394 116.90678 26493 ft 414 kts 230°
2026-04-14 12:19 23.54398 116.88413 26511 ft 414 kts 230°
2026-04-14 12:20 23.52399 116.86145 26496 ft 414 kts 229°
2026-04-14 12:20 23.50410 116.83890 26514 ft 413 kts 229°
2026-04-14 12:20 23.48418 116.81632 26509 ft 413 kts 229°
2026-04-14 12:20 23.46424 116.79372 26503 ft 414 kts 229°
2026-04-14 12:21 23.44381 116.77166 26502 ft 416 kts 225°
2026-04-14 12:21 23.42149 116.75134 26506 ft 418 kts 223°
2026-04-14 12:21 23.39873 116.73164 26504 ft 419 kts 221°
2026-04-14 12:21 23.37570 116.71227 26504 ft 419 kts 221°
2026-04-14 12:22 23.35254 116.69306 26394 ft 417 kts 221°
2026-04-14 12:22 23.32946 116.67403 25792 ft 417 kts 221°
2026-04-14 12:22 23.30670 116.65527 25278 ft 414 kts 221°
2026-04-14 12:22 23.28354 116.63617 24768 ft 411 kts 221°
2026-04-14 12:23 23.26085 116.61742 24251 ft 408 kts 221°
2026-04-14 12:23 23.23838 116.59882 23803 ft 405 kts 221°
2026-04-14 12:23 23.21634 116.58056 23568 ft 403 kts 221°
2026-04-14 12:23 23.19371 116.56179 23519 ft 405 kts 221°
2026-04-14 12:24 23.17164 116.54349 23499 ft 405 kts 221°
2026-04-14 12:24 23.14929 116.52496 23510 ft 405 kts 221°
2026-04-14 12:24 23.12686 116.50639 23504 ft 404 kts 221°
2026-04-14 12:24 23.10451 116.48788 23498 ft 404 kts 221°
2026-04-14 12:25 23.08212 116.46936 23499 ft 404 kts 221°
2026-04-14 12:25 23.05979 116.45090 23510 ft 404 kts 221°
2026-04-14 12:25 23.03736 116.43237 23506 ft 404 kts 221°
2026-04-14 12:25 23.01497 116.41388 23510 ft 404 kts 221°
2026-04-14 12:26 22.99360 116.39423 23510 ft 401 kts 227°
2026-04-14 12:26 22.97502 116.37189 23506 ft 398 kts 235°
2026-04-14 12:26 22.96000 116.34677 23505 ft 395 kts 244°
2026-04-14 12:26 22.94928 116.31947 23505 ft 393 kts 254°
2026-04-14 12:27 22.94299 116.29070 23505 ft 392 kts 261°
2026-04-14 12:27 22.93893 116.26146 23508 ft 392 kts 263°
2026-04-14 12:27 22.93583 116.23211 23516 ft 391 kts 265°
2026-04-14 12:27 22.93313 116.20272 23508 ft 391 kts 265°
2026-04-14 12:28 22.93052 116.17345 23505 ft 390 kts 265°
2026-04-14 12:28 22.92784 116.14415 23505 ft 390 kts 265°
2026-04-14 12:28 22.92503 116.11486 23513 ft 390 kts 264°
2026-04-14 12:28 22.92213 116.08561 23505 ft 390 kts 264°
2026-04-14 12:29 22.91914 116.05630 23508 ft 391 kts 264°
2026-04-14 12:29 22.91611 116.02703 23508 ft 390 kts 264°
2026-04-14 12:29 22.91305 115.99774 23505 ft 390 kts 264°
2026-04-14 12:29 22.90997 115.96848 23508 ft 391 kts 264°
2026-04-14 12:30 22.90690 115.93929 23511 ft 390 kts 264°
2026-04-14 12:30 22.90382 115.91004 23484 ft 389 kts 264°
2026-04-14 12:30 22.90078 115.88103 23229 ft 387 kts 264°
2026-04-14 12:30 22.89782 115.85203 22917 ft 387 kts 264°
2026-04-14 12:31 22.89489 115.82306 22611 ft 386 kts 264°
2026-04-14 12:31 22.89199 115.79423 22308 ft 384 kts 264°
2026-04-14 12:31 22.88910 115.76549 22006 ft 382 kts 264°
2026-04-14 12:31 22.88622 115.73690 21706 ft 381 kts 264°
2026-04-14 12:32 22.88334 115.70839 21417 ft 379 kts 264°
2026-04-14 12:32 22.88048 115.68010 21124 ft 377 kts 264°
2026-04-14 12:32 22.87763 115.65182 20832 ft 376 kts 264°
2026-04-14 12:32 22.87479 115.62372 20555 ft 374 kts 264°
2026-04-14 12:33 22.87194 115.59572 20265 ft 373 kts 264°
2026-04-14 12:33 22.86911 115.56780 19985 ft 371 kts 264°
2026-04-14 12:33 22.86632 115.54041 19718 ft 370 kts 264°
2026-04-14 12:33 22.86349 115.51274 19439 ft 368 kts 264°
2026-04-14 12:34 22.86064 115.48480 19158 ft 367 kts 264°
2026-04-14 12:34 22.85784 115.45742 18887 ft 366 kts 264°
2026-04-14 12:34 22.85503 115.43003 18611 ft 365 kts 264°
2026-04-14 12:34 22.85225 115.40301 18333 ft 366 kts 264°
2026-04-14 12:35 22.84943 115.37560 18062 ft 366 kts 264°
2026-04-14 12:35 22.84661 115.34823 17754 ft 365 kts 264°
2026-04-14 12:35 22.84379 115.32096 17458 ft 362 kts 264°
2026-04-14 12:35 22.84101 115.29400 17158 ft 359 kts 264°
2026-04-14 12:36 22.83823 115.26715 16854 ft 357 kts 264°
2026-04-14 12:36 22.83546 115.24047 16563 ft 355 kts 263°
2026-04-14 12:36 22.83270 115.21391 16265 ft 354 kts 263°
2026-04-14 12:36 22.82995 115.18749 15980 ft 352 kts 263°
2026-04-14 12:37 22.82722 115.16115 15714 ft 351 kts 264°
2026-04-14 12:37 22.82642 115.13489 15618 ft 349 kts 271°
2026-04-14 12:37 22.82759 115.10857 15606 ft 349 kts 272°
2026-04-14 12:37 22.82920 115.08229 15612 ft 349 kts 273°
2026-04-14 12:38 22.83285 115.02974 15612 ft 350 kts 273°
2026-04-14 12:38 22.83476 115.00346 15612 ft 350 kts 274°
2026-04-14 12:38 22.83668 114.97719 15608 ft 349 kts 274°
2026-04-14 12:39 22.83861 114.95095 15608 ft 349 kts 274°
2026-04-14 12:39 22.84053 114.92473 15609 ft 349 kts 274°
2026-04-14 12:39 22.84245 114.89852 15608 ft 349 kts 274°
2026-04-14 12:39 22.84437 114.87242 15608 ft 348 kts 274°
2026-04-14 12:40 22.84630 114.84611 15606 ft 349 kts 274°
2026-04-14 12:40 22.84821 114.81991 15607 ft 349 kts 274°
2026-04-14 12:40 22.85012 114.79368 15605 ft 349 kts 274°
2026-04-14 12:40 22.85203 114.76744 15605 ft 349 kts 274°
2026-04-14 12:41 22.85392 114.74128 15606 ft 349 kts 274°
2026-04-14 12:41 22.85582 114.71500 15605 ft 349 kts 274°
2026-04-14 12:41 22.85771 114.68881 15606 ft 349 kts 274°
2026-04-14 12:41 22.85960 114.66258 15607 ft 349 kts 274°
2026-04-14 12:42 22.86149 114.63637 15600 ft 349 kts 274°
2026-04-14 12:42 22.86337 114.61009 15600 ft 349 kts 274°
2026-04-14 12:42 22.86461 114.59273 15601 ft 349 kts 274°
2026-04-14 12:42 22.86712 114.55762 15463 ft 349 kts 274°
2026-04-14 12:43 22.86836 114.54023 15301 ft 349 kts 274°
2026-04-14 12:43 22.87083 114.50555 14947 ft 347 kts 274°
2026-04-14 12:43 22.87207 114.48797 14585 ft 347 kts 273°
2026-04-14 12:43 22.87451 114.45349 13903 ft 344 kts 273°
2026-04-14 12:44 22.87573 114.43615 13554 ft 341 kts 273°
2026-04-14 12:44 22.87812 114.40232 12744 ft 338 kts 273°
2026-04-14 12:44 22.87990 114.37701 12172 ft 336 kts 273°
2026-04-14 12:45 22.88283 114.33496 11215 ft 332 kts 274°
2026-04-14 12:45 22.88457 114.31004 10831 ft 330 kts 274°
2026-04-14 12:45 22.88628 114.28532 10707 ft 328 kts 273°
2026-04-14 12:45 22.88800 114.26062 10695 ft 329 kts 273°
2026-04-14 12:46 22.88967 114.23650 10499 ft 320 kts 274°
2026-04-14 12:46 22.89133 114.21256 10302 ft 308 kts 274°
2026-04-14 12:46 22.89287 114.18987 10137 ft 296 kts 273°
2026-04-14 12:46 22.89437 114.16805 9955 ft 285 kts 273°
2026-04-14 12:47 22.89576 114.14717 9668 ft 279 kts 273°
2026-04-14 12:47 22.89719 114.12629 9305 ft 276 kts 273°
2026-04-14 12:47 22.89863 114.10564 9048 ft 273 kts 273°
2026-04-14 12:47 22.90004 114.08515 8798 ft 272 kts 272°
2026-04-14 12:48 22.90144 114.06470 8559 ft 272 kts 272°
2026-04-14 12:48 22.90283 114.04440 8329 ft 268 kts 272°
2026-04-14 12:48 22.90419 114.02457 8165 ft 260 kts 272°
2026-04-14 12:48 22.90552 114.00518 7902 ft 257 kts 272°
2026-04-14 12:49 22.90681 113.98596 7592 ft 256 kts 272°
2026-04-14 12:49 22.90811 113.96671 7277 ft 255 kts 272°
2026-04-14 12:49 22.90940 113.94754 6970 ft 255 kts 272°
2026-04-14 12:49 22.91068 113.92843 6651 ft 254 kts 272°
2026-04-14 12:50 22.91197 113.90934 6336 ft 253 kts 272°
2026-04-14 12:50 22.91451 113.87137 5693 ft 252 kts 272°
2026-04-14 12:50 22.91578 113.85239 5368 ft 251 kts 272°
2026-04-14 12:51 22.91703 113.83352 5077 ft 250 kts 272°
2026-04-14 12:51 22.91828 113.81484 4824 ft 248 kts 273°
2026-04-14 12:51 22.91952 113.79620 4562 ft 247 kts 273°
2026-04-14 12:51 22.92069 113.77765 4298 ft 246 kts 271°
2026-04-14 12:52 22.91913 113.75936 4064 ft 244 kts 253°
2026-04-14 12:52 22.91285 113.74241 3826 ft 241 kts 243°
2026-04-14 12:52 22.90537 113.72652 3696 ft 232 kts 241°
2026-04-14 12:52 22.89772 113.71156 3607 ft 221 kts 235°
2026-04-14 12:53 22.88773 113.69951 3462 ft 212 kts 218°
2026-04-14 12:53 22.87474 113.69253 3302 ft 209 kts 195°
2026-04-14 12:53 22.86032 113.69157 3281 ft 210 kts 174°
2026-04-14 12:53 22.84633 113.69636 3283 ft 213 kts 159°
2026-04-14 12:54 22.83306 113.70344 3282 ft 213 kts 156°
2026-04-14 12:54 22.82036 113.71083 3278 ft 200 kts 155°
2026-04-14 12:54 22.80838 113.71756 3276 ft 189 kts 156°
2026-04-14 12:54 22.79676 113.72394 3116 ft 186 kts 156°
2026-04-14 12:55 22.78526 113.73027 2855 ft 185 kts 156°
2026-04-14 12:55 22.77380 113.73659 2604 ft 184 kts 156°
2026-04-14 12:55 22.76248 113.74283 2354 ft 181 kts 156°
2026-04-14 12:55 22.75131 113.74899 2109 ft 177 kts 156°
2026-04-14 12:56 22.74075 113.75483 1879 ft 164 kts 157°
2026-04-14 12:56 22.73087 113.76027 1687 ft 157 kts 156°
2026-04-14 12:56 22.72125 113.76556 1490 ft 153 kts 156°
2026-04-14 12:56 22.71212 113.77060 1284 ft 141 kts 156°
2026-04-14 12:57 22.70367 113.77529 1089 ft 133 kts 155°
2026-04-14 12:57 22.69538 113.77984 948 ft 134 kts 155°
2026-04-14 12:57 22.68695 113.78442 806 ft 136 kts 155°
2026-04-14 12:57 22.67861 113.78907 628 ft 134 kts 152°
2026-04-14 12:58 22.67038 113.79378 436 ft 135 kts 154°
2026-04-14 12:58 22.66184 113.79835 269 ft 137 kts 154°
2026-04-14 12:58 22.65341 113.80293 63 ft 135 kts 154°
2026-04-14 12:58 22.64561 113.80724 15 ft 107 kts 153°
2026-04-14 12:59 22.64067 113.80986 15 ft 56 kts 154°
2026-04-14 12:59 22.63868 113.81056 15 ft 24 kts 179°
2026-04-14 12:59 22.63724 113.81049 15 ft 11 kts 193°
2026-04-14 12:59 22.63663 113.80992 15 ft 13 kts 241°
2026-04-14 13:00 22.63626 113.80917 15 ft 6 kts 223°
2026-04-14 13:00 22.63599 113.80922 15 ft 5 kts 159°
2026-04-14 13:00 22.63561 113.80939 15 ft 7 kts 156°
2026-04-14 13:00 22.63509 113.80941 15 ft 8 kts 203°
2026-04-14 13:01 22.63478 113.80911 15 ft 4 kts 230°
2026-04-14 13:01 22.63467 113.80891 15 ft 0 kts 240°